WZZ252 EDDK-LGKR

Flight info

Callsign WZZ252
Flight time N/A
Altitude 37000
Route KUMIK2Q/13L KUMIK L603 TESGA DCT ESATI DCT DETEV DCT DINKU M867 XERUM DCT BAVAX DCT RADIZ DCT MODRO DCT DARZA DCT RUGOG DCT RASTU DCT DEPET DCT UNIPA DCT VAKSU DCT RODON DCT LIMJA N732 PITAS
Aircraft A320/M-SDE3FGHIRWY/LB1

Departure

Time N/A
Airport Cologne Bonn Airport (EDDK)

Arrival

Time 2026-04-28 22:31
Airport Corfu Ioannis Kapodistrias International Airport (LGKR)
Time Latitude Longitude Altitude Speed Heading
2026-04-28 20:59 47.87942 12.16403 37132 ft 505 kts 137°
2026-04-28 20:59 47.85456 12.20103 37130 ft 504 kts 137°
2026-04-28 20:59 47.80486 12.27489 37130 ft 504 kts 137°
2026-04-28 21:00 47.75512 12.34866 37128 ft 504 kts 137°
2026-04-28 21:00 47.70538 12.42210 37121 ft 504 kts 137°
2026-04-28 21:01 47.65564 12.49539 37123 ft 504 kts 137°
2026-04-28 21:01 47.60446 12.56529 37118 ft 502 kts 143°
2026-04-28 21:02 47.55037 12.63069 37114 ft 502 kts 143°
2026-04-28 21:02 47.49613 12.69607 37105 ft 503 kts 144°
2026-04-28 21:03 47.44179 12.76145 37105 ft 503 kts 144°
2026-04-28 21:03 47.38748 12.82677 37106 ft 504 kts 144°
2026-04-28 21:04 47.33349 12.89151 37103 ft 504 kts 144°
2026-04-28 21:04 47.27848 12.95713 37108 ft 504 kts 144°
2026-04-28 21:05 47.22427 13.02169 37120 ft 505 kts 144°
2026-04-28 21:05 47.16966 13.08665 37128 ft 504 kts 144°
2026-04-28 21:06 47.11494 13.15147 37130 ft 505 kts 144°
2026-04-28 21:06 47.06020 13.21615 37134 ft 505 kts 144°
2026-04-28 21:07 47.00543 13.28066 37147 ft 505 kts 144°
2026-04-28 21:07 46.95064 13.34503 37147 ft 505 kts 144°
2026-04-28 21:08 46.89580 13.40931 37153 ft 505 kts 144°
2026-04-28 21:08 46.84090 13.47345 37147 ft 505 kts 144°
2026-04-28 21:09 46.78635 13.53706 37154 ft 505 kts 144°
2026-04-28 21:09 46.73133 13.60111 37156 ft 506 kts 144°
2026-04-28 21:10 46.67633 13.66490 37160 ft 506 kts 144°
2026-04-28 21:10 46.62119 13.72867 37165 ft 506 kts 144°
2026-04-28 21:11 46.56607 13.79225 37169 ft 506 kts 144°
2026-04-28 21:11 46.51080 13.85574 37177 ft 506 kts 145°
2026-04-28 21:12 46.45553 13.91903 37177 ft 505 kts 145°
2026-04-28 21:12 46.40033 13.98221 37176 ft 505 kts 145°
2026-04-28 21:13 46.34515 14.04521 37171 ft 505 kts 145°
2026-04-28 21:13 46.28991 14.10799 37183 ft 505 kts 145°
2026-04-28 21:14 46.23455 14.17074 37178 ft 505 kts 145°
2026-04-28 21:14 46.17932 14.23325 37173 ft 505 kts 145°
2026-04-28 21:15 46.12439 14.29516 37175 ft 504 kts 145°
2026-04-28 21:15 46.06905 14.35737 37174 ft 504 kts 145°
2026-04-28 21:16 46.01372 14.41951 37169 ft 504 kts 145°
2026-04-28 21:16 45.95842 14.48144 37172 ft 504 kts 145°
2026-04-28 21:17 45.90313 14.54311 37176 ft 503 kts 145°
2026-04-28 21:17 45.84774 14.60467 37175 ft 503 kts 145°
2026-04-28 21:18 45.79241 14.66614 37176 ft 503 kts 145°
2026-04-28 21:18 45.73715 14.72742 37175 ft 502 kts 146°
2026-04-28 21:19 45.68186 14.78846 37173 ft 502 kts 146°
2026-04-28 21:19 45.62660 14.84937 37170 ft 501 kts 146°
2026-04-28 21:20 45.57138 14.91010 37171 ft 501 kts 146°
2026-04-28 21:20 45.51649 14.97034 37166 ft 500 kts 146°
2026-04-28 21:21 45.46127 15.03073 37170 ft 500 kts 146°
2026-04-28 21:21 45.40602 15.09099 37164 ft 500 kts 146°
2026-04-28 21:22 45.35082 15.15101 37160 ft 499 kts 146°
2026-04-28 21:22 45.30488 15.20086 37156 ft 500 kts 146°
2026-04-28 21:23 45.24032 15.27078 37156 ft 499 kts 146°
2026-04-28 21:23 45.18507 15.33044 37156 ft 499 kts 146°
2026-04-28 21:24 45.12981 15.38993 37154 ft 499 kts 146°
2026-04-28 21:24 45.07439 15.44951 37149 ft 499 kts 146°
2026-04-28 21:25 45.01946 15.50849 37147 ft 499 kts 146°
2026-04-28 21:25 44.96407 15.56766 37135 ft 498 kts 146°
2026-04-28 21:26 44.90881 15.62652 37139 ft 497 kts 146°
2026-04-28 21:26 44.85357 15.68530 37135 ft 497 kts 146°
2026-04-28 21:27 44.79833 15.74390 37133 ft 496 kts 146°
2026-04-28 21:27 44.74321 15.80236 37132 ft 496 kts 146°
2026-04-28 21:28 44.68802 15.86074 37129 ft 496 kts 146°
2026-04-28 21:28 44.63281 15.91886 37126 ft 496 kts 146°
2026-04-28 21:29 44.57873 15.97560 37126 ft 496 kts 146°
2026-04-28 21:29 44.52353 16.03341 37127 ft 495 kts 146°
2026-04-28 21:30 44.46870 16.09090 37123 ft 495 kts 146°
2026-04-28 21:30 44.41353 16.14849 37120 ft 495 kts 146°
2026-04-28 21:31 44.35824 16.20591 37117 ft 495 kts 146°
2026-04-28 21:31 44.30303 16.26322 37121 ft 494 kts 146°
2026-04-28 21:32 44.24784 16.32056 37114 ft 494 kts 146°
2026-04-28 21:32 44.20161 16.36842 37112 ft 494 kts 146°
2026-04-28 21:33 44.14673 16.42499 37114 ft 494 kts 146°
2026-04-28 21:33 44.09144 16.48176 37106 ft 493 kts 146°
2026-04-28 21:34 44.03623 16.53844 37117 ft 493 kts 146°
2026-04-28 21:34 43.98103 16.59514 37103 ft 493 kts 146°
2026-04-28 21:35 43.92575 16.65160 37105 ft 493 kts 146°
2026-04-28 21:35 43.87051 16.70788 37111 ft 493 kts 146°
2026-04-28 21:36 43.81519 16.76416 37111 ft 492 kts 146°
2026-04-28 21:36 43.75989 16.82011 37115 ft 492 kts 147°
2026-04-28 21:37 43.70462 16.87600 37113 ft 492 kts 146°
2026-04-28 21:37 43.64940 16.93191 37115 ft 492 kts 146°
2026-04-28 21:38 43.59420 16.98758 37117 ft 492 kts 147°
2026-04-28 21:38 43.53893 17.04315 37113 ft 491 kts 147°
2026-04-28 21:39 43.48363 17.09853 37110 ft 491 kts 147°
2026-04-28 21:39 43.42838 17.15375 37114 ft 491 kts 147°
2026-04-28 21:40 43.37320 17.20897 37104 ft 490 kts 147°
2026-04-28 21:40 43.31796 17.26393 37102 ft 490 kts 147°
2026-04-28 21:41 43.26312 17.31830 37096 ft 489 kts 147°
2026-04-28 21:41 43.20798 17.37300 37092 ft 489 kts 147°
2026-04-28 21:42 43.15284 17.42756 37093 ft 489 kts 147°
2026-04-28 21:42 43.09779 17.48196 37091 ft 488 kts 147°
2026-04-28 21:43 43.04264 17.53622 37086 ft 488 kts 147°
2026-04-28 21:43 42.98755 17.59031 37084 ft 488 kts 147°
2026-04-28 21:44 42.93238 17.64427 37087 ft 487 kts 147°
2026-04-28 21:44 42.87723 17.69825 37089 ft 487 kts 147°
2026-04-28 21:45 42.82209 17.75208 37088 ft 487 kts 147°
2026-04-28 21:45 42.76729 17.80536 37094 ft 488 kts 147°
2026-04-28 21:46 42.71203 17.85898 37088 ft 488 kts 147°
2026-04-28 21:46 42.65678 17.91256 37088 ft 488 kts 147°
2026-04-28 21:47 42.60162 17.96605 37086 ft 487 kts 147°
2026-04-28 21:47 42.54629 18.01960 37084 ft 488 kts 147°
2026-04-28 21:48 42.49090 18.07285 37084 ft 488 kts 147°
2026-04-28 21:48 42.43552 18.12591 37085 ft 488 kts 147°
2026-04-28 21:49 42.38054 18.17859 37086 ft 487 kts 147°
2026-04-28 21:49 42.32517 18.23163 37083 ft 487 kts 147°
2026-04-28 21:50 42.26984 18.28453 37089 ft 487 kts 147°
2026-04-28 21:50 42.21442 18.33716 37088 ft 487 kts 148°
2026-04-28 21:51 42.15898 18.38974 37089 ft 487 kts 147°
2026-04-28 21:51 42.10370 18.44226 37090 ft 486 kts 148°
2026-04-28 21:52 42.04842 18.49465 37090 ft 486 kts 148°
2026-04-28 21:52 41.99336 18.54719 37095 ft 486 kts 146°
2026-04-28 21:53 41.94012 18.60219 37097 ft 486 kts 144°
2026-04-28 21:53 41.88722 18.65871 37097 ft 486 kts 144°
2026-04-28 21:54 41.83399 18.71454 37096 ft 485 kts 145°
2026-04-28 21:54 41.78039 18.76968 37097 ft 485 kts 145°
2026-04-28 21:55 41.72681 18.82479 37096 ft 486 kts 145°
2026-04-28 21:55 41.67329 18.87987 37098 ft 486 kts 145°
2026-04-28 21:56 41.61968 18.93493 37097 ft 486 kts 145°
2026-04-28 21:56 41.56598 18.98994 37097 ft 486 kts 145°
2026-04-28 21:57 41.51270 19.04448 37096 ft 486 kts 145°
2026-04-28 21:57 41.45788 19.09694 37098 ft 482 kts 155°
2026-04-28 21:58 41.39627 19.13037 37097 ft 478 kts 163°
2026-04-28 21:58 41.33377 19.16082 37096 ft 478 kts 163°
2026-04-28 21:59 41.27126 19.19136 37104 ft 478 kts 163°
2026-04-28 22:00 41.17755 19.23689 37104 ft 478 kts 163°
2026-04-28 22:00 41.11503 19.26724 37103 ft 478 kts 163°
2026-04-28 22:01 41.05291 19.29734 37105 ft 478 kts 163°
2026-04-28 22:01 40.99028 19.32766 36822 ft 479 kts 163°
2026-04-28 22:01 40.95924 19.34266 36688 ft 473 kts 163°
2026-04-28 22:02 40.92831 19.35756 36586 ft 474 kts 163°
2026-04-28 22:02 40.89735 19.37243 36467 ft 473 kts 163°
2026-04-28 22:02 40.86647 19.38727 36353 ft 472 kts 163°
2026-04-28 22:02 40.83557 19.40213 36237 ft 472 kts 163°
2026-04-28 22:03 40.80476 19.41691 35792 ft 471 kts 163°
2026-04-28 22:03 40.77406 19.43163 35336 ft 467 kts 163°
2026-04-28 22:03 40.74360 19.44623 34877 ft 464 kts 163°
2026-04-28 22:03 40.71340 19.46069 34398 ft 461 kts 162°
2026-04-28 22:04 40.68334 19.47506 33892 ft 458 kts 162°
2026-04-28 22:04 40.65352 19.48933 33391 ft 452 kts 162°
2026-04-28 22:04 40.62429 19.50333 32918 ft 442 kts 162°
2026-04-28 22:04 40.59567 19.51699 32467 ft 435 kts 162°
2026-04-28 22:05 40.56730 19.53046 31999 ft 432 kts 162°
2026-04-28 22:05 40.53914 19.54381 31560 ft 429 kts 162°
2026-04-28 22:05 40.51113 19.55708 31100 ft 426 kts 162°
2026-04-28 22:05 40.48345 19.57019 30668 ft 424 kts 162°
2026-04-28 22:06 40.45562 19.58334 30232 ft 421 kts 161°
2026-04-28 22:06 40.42851 19.59613 29761 ft 419 kts 161°
2026-04-28 22:06 40.40091 19.60915 29353 ft 414 kts 161°
2026-04-28 22:06 40.37390 19.62191 28940 ft 410 kts 161°
2026-04-28 22:07 40.34753 19.63441 28551 ft 407 kts 161°
2026-04-28 22:07 40.32100 19.64699 28160 ft 403 kts 161°
2026-04-28 22:07 40.29474 19.65941 27767 ft 400 kts 161°
2026-04-28 22:07 40.26860 19.67174 27364 ft 397 kts 161°
2026-04-28 22:08 40.24299 19.68381 26989 ft 388 kts 161°
2026-04-28 22:08 40.21773 19.69573 26609 ft 385 kts 161°
2026-04-28 22:08 40.19254 19.70760 26192 ft 384 kts 161°
2026-04-28 22:08 40.16755 19.71935 25805 ft 381 kts 161°
2026-04-28 22:09 40.14265 19.73105 25388 ft 380 kts 162°
2026-04-28 22:09 40.11787 19.74267 24986 ft 378 kts 161°
2026-04-28 22:09 40.09342 19.75414 24568 ft 368 kts 162°
2026-04-28 22:09 40.06968 19.76525 24172 ft 358 kts 162°
2026-04-28 22:10 40.04650 19.77610 23778 ft 349 kts 162°
2026-04-28 22:10 40.02377 19.78671 23449 ft 343 kts 162°
2026-04-28 22:10 40.00145 19.79712 23085 ft 339 kts 162°
2026-04-28 22:10 39.98137 19.80649 22703 ft 336 kts 162°
2026-04-28 22:11 39.95914 19.81686 22294 ft 334 kts 162°
2026-04-28 22:11 39.93731 19.82703 21879 ft 332 kts 162°
2026-04-28 22:11 39.91562 19.83714 21478 ft 330 kts 162°
2026-04-28 22:11 39.89392 19.84667 21078 ft 327 kts 169°
2026-04-28 22:12 39.87175 19.84650 20720 ft 317 kts 199°
2026-04-28 22:12 39.85320 19.83257 20349 ft 306 kts 230°
2026-04-28 22:12 39.84316 19.80911 19998 ft 296 kts 261°
2026-04-28 22:12 39.84274 19.78316 19666 ft 290 kts 276°
2026-04-28 22:13 39.84266 19.75695 19322 ft 290 kts 263°
2026-04-28 22:13 39.83665 19.73199 18997 ft 291 kts 245°
2026-04-28 22:13 39.82586 19.70963 18666 ft 292 kts 235°
2026-04-28 22:13 39.81283 19.68930 18319 ft 293 kts 230°
2026-04-28 22:14 39.79880 19.67014 17949 ft 292 kts 227°
2026-04-28 22:14 39.78409 19.65201 17583 ft 291 kts 224°
2026-04-28 22:14 39.77071 19.63253 17218 ft 287 kts 239°
2026-04-28 22:14 39.75997 19.61077 16869 ft 285 kts 239°
2026-04-28 22:15 39.74925 19.58915 16511 ft 284 kts 239°
2026-04-28 22:15 39.73853 19.56763 16173 ft 283 kts 239°
2026-04-28 22:15 39.72771 19.54628 15816 ft 283 kts 234°
2026-04-28 22:15 39.71381 19.52827 15465 ft 284 kts 217°
2026-04-28 22:16 39.69630 19.51632 15101 ft 287 kts 200°
2026-04-28 22:16 39.67696 19.50974 14727 ft 288 kts 194°
2026-04-28 22:16 39.65735 19.50491 14422 ft 286 kts 191°
2026-04-28 22:16 39.63796 19.50165 14049 ft 282 kts 185°
2026-04-28 22:17 39.61860 19.50401 13595 ft 279 kts 166°
2026-04-28 22:17 39.60107 19.51389 13211 ft 272 kts 148°
2026-04-28 22:17 39.58699 19.52960 12853 ft 265 kts 130°
2026-04-28 22:17 39.57724 19.54951 12496 ft 259 kts 113°
2026-04-28 22:18 39.57154 19.57142 12156 ft 255 kts 108°
2026-04-28 22:18 39.56629 19.59303 11971 ft 245 kts 108°
2026-04-28 22:18 39.56111 19.61385 11560 ft 242 kts 108°
2026-04-28 22:18 39.55593 19.63426 11232 ft 234 kts 109°
2026-04-28 22:19 39.55098 19.65364 10941 ft 218 kts 109°
2026-04-28 22:19 39.54643 19.67150 10693 ft 205 kts 109°
2026-04-28 22:19 39.54213 19.68833 10461 ft 189 kts 109°
2026-04-28 22:19 39.53821 19.70367 10246 ft 170 kts 109°
2026-04-28 22:20 39.53459 19.71790 10040 ft 164 kts 109°
2026-04-28 22:20 39.53105 19.73184 9824 ft 162 kts 109°
2026-04-28 22:20 39.52753 19.74567 9616 ft 161 kts 109°
2026-04-28 22:20 39.52400 19.75947 9415 ft 161 kts 109°
2026-04-28 22:21 39.52048 19.77323 9213 ft 161 kts 109°
2026-04-28 22:21 39.51698 19.78696 9015 ft 160 kts 109°
2026-04-28 22:21 39.51351 19.80064 8815 ft 159 kts 109°
2026-04-28 22:21 39.51004 19.81426 8621 ft 159 kts 109°
2026-04-28 22:22 39.50652 19.82811 8399 ft 164 kts 109°
2026-04-28 22:22 39.50291 19.84222 8212 ft 166 kts 109°
2026-04-28 22:22 39.49928 19.85637 8011 ft 165 kts 109°
2026-04-28 22:22 39.49568 19.87049 7808 ft 165 kts 109°
2026-04-28 22:23 39.49208 19.88458 7602 ft 167 kts 109°
2026-04-28 22:23 39.48797 19.90058 7395 ft 203 kts 109°
2026-04-28 22:23 39.48342 19.91831 7103 ft 211 kts 109°
2026-04-28 22:23 39.47880 19.93638 6844 ft 211 kts 109°
2026-04-28 22:24 39.47419 19.95444 6575 ft 211 kts 109°
2026-04-28 22:24 39.47116 19.96633 6392 ft 210 kts 109°
2026-04-28 22:24 39.46500 19.99032 6034 ft 209 kts 109°
2026-04-28 22:24 39.46017 20.00807 5677 ft 209 kts 117°
2026-04-28 22:25 39.45007 20.02058 5121 ft 208 kts 161°
2026-04-28 22:25 39.43609 20.02016 4565 ft 205 kts 207°
2026-04-28 22:25 39.42675 20.00708 4027 ft 203 kts 251°
2026-04-28 22:25 39.42448 19.98934 3654 ft 197 kts 266°
2026-04-28 22:26 39.42602 19.97280 3411 ft 178 kts 298°
2026-04-28 22:26 39.43082 19.96477 3324 ft 158 kts 315°
2026-04-28 22:26 39.43976 19.95781 3167 ft 149 kts 343°
2026-04-28 22:26 39.44966 19.95514 3045 ft 147 kts 347°
2026-04-28 22:27 39.45959 19.95238 2906 ft 145 kts 347°
2026-04-28 22:27 39.46945 19.94962 2702 ft 145 kts 347°
2026-04-28 22:27 39.47926 19.94688 2488 ft 144 kts 347°
2026-04-28 22:27 39.48901 19.94413 2282 ft 143 kts 347°
2026-04-28 22:28 39.49875 19.94137 2068 ft 143 kts 347°
2026-04-28 22:28 39.51172 19.93770 1790 ft 142 kts 347°
2026-04-28 22:28 39.51812 19.93588 1652 ft 142 kts 347°
2026-04-28 22:28 39.52775 19.93313 1435 ft 141 kts 347°
2026-04-28 22:29 39.53734 19.93038 1232 ft 141 kts 347°
2026-04-28 22:29 39.54690 19.92765 1033 ft 140 kts 347°
2026-04-28 22:29 39.55644 19.92493 826 ft 140 kts 347°
2026-04-28 22:29 39.56589 19.92211 649 ft 139 kts 345°
2026-04-28 22:30 39.57527 19.91874 413 ft 141 kts 346°
2026-04-28 22:30 39.58471 19.91642 244 ft 137 kts 346°
2026-04-28 22:30 39.59387 19.91428 100 ft 133 kts 349°
2026-04-28 22:30 39.60230 19.91213 24 ft 109 kts 344°
2026-04-28 22:31 39.60684 19.91090 20 ft 23 kts 349°
2026-04-28 22:31 39.60778 19.91064 21 ft 16 kts 348°
2026-04-28 22:31 39.60895 19.91032 19 ft 19 kts 349°
2026-04-28 22:31 39.61002 19.91013 19 ft 11 kts
2026-04-28 22:32 39.61049 19.91075 19 ft 8 kts 56°
2026-04-28 22:32 39.61020 19.91132 19 ft 10 kts 163°
2026-04-28 22:32 39.60991 19.91140 20 ft 0 kts 170°
2026-04-28 22:33 39.60990 19.91140 20 ft 1 kts 170°
2026-04-28 22:34 39.60969 19.91144 21 ft 4 kts 170°
2026-04-28 22:34 39.60930 19.91153 19 ft 7 kts 168°
2026-04-28 22:34 39.60872 19.91170 18 ft 10 kts 167°
2026-04-28 22:34 39.60793 19.91192 18 ft 13 kts 168°
2026-04-28 22:35 39.60723 19.91210 18 ft 1 kts 169°
2026-04-28 22:35 39.60699 19.91216 19 ft 1 kts 169°
2026-04-28 22:35 39.60697 19.91220 19 ft 0 kts 136°
2026-04-28 22:35 39.60692 19.91228 19 ft 2 kts 126°
2026-04-28 22:36 39.60691 19.91256 18 ft 4 kts 86°
2026-04-28 22:36 39.60699 19.91305 19 ft 7 kts 76°
2026-04-28 22:36 39.60705 19.91342 18 ft 0 kts 79°